Need for Speed World was shut down on 14th July 2015.

Avg score - Leaderboard

# Flag Crew Name Avg score Ranked members Total members Last ranking update
1 TFR Team France Race 1,035,953 4 15 2017-10-24 00:00
2 SF StrongForce Racers 1,031,692 4 38 2017-10-24 00:00
3 BTeam BergamoTea 1,029,750 4 17 2017-10-24 00:00
4 DRE Demon Racers Extreme 1,026,124 4 16 2017-10-24 00:00
5 GRR Grim Reaper Racing 1,025,933 4 22 2017-10-24 00:00
6 FT Fenix Team 996,305 4 23 2017-10-24 00:00
7 CCCP Careless Cynics and Cads Party 995,050 4 7 2017-10-24 00:00
8 ULPT Union Latinoamericana Pro Team 992,795 4 33 2017-10-24 00:00
9 Dirty WWW.DIRTY.PT 965,519 4 20 2017-10-24 00:00
10 UBR Ultimate Brazilian Racers 963,944 4 10 2017-10-24 00:00
11 TSKT Turbo Speed KingS Team 950,883 4 30 2017-10-24 00:00
12 MAoCDT Magic Art of Car Designs Team 923,102 4 126 2017-10-24 00:00
13 TTF Team Two Fast 905,485 4 9 2017-10-24 00:00
14 SK Staff of Kings 902,470 5 26 2017-10-24 00:00
15 TIC Team Italia Corse 891,036 4 18 2017-10-24 00:00
16 TFA TWin Flag Aces 866,607 4 9 2017-10-24 00:00
17 CrewNL NFSW CrewNL 847,989 4 20 2017-10-24 00:00
18 TNT Team No Time 847,986 4 6 2017-10-24 00:00
19 RRT Revolution Racing Team 773,798 4 23 2017-10-24 00:00
20 ERT Elite Racing Team 753,451 4 16 2017-10-24 00:00
21 LST Little Sleeping Team 726,584 4 7 2017-10-24 00:00
22 URL Underground Racing League 712,512 4 4 2017-10-24 00:00
23 SOUL Saints of Unified Legions 673,354 4 11 2017-10-24 00:00
24 ERC Evolution Racing Crew 623,434 4 13 2017-10-24 00:00
25 WRBRT Wendys Red Bull Racing Team 554,733 9 10 2017-10-24 00:00
26 BEST Only For Best Drivers 530,398 9 9 2017-10-24 00:00
27 -SF- SWAT FORCE 510,750 4 18 2017-10-24 00:00
28 RTG Raze To Ground 505,894 4 10 2017-10-24 00:00
29 GD GERMAN DREAM 505,803 4 88 2017-10-24 00:00
30 ETT Evil Titans Team 500,429 4 16 2017-10-24 00:00
31 TA Touge Army 474,059 6 6 2017-10-24 00:00
32 SIV Speed In Veins 468,109 6 7 2017-10-24 00:00
33 HKS High Kings of Street 463,270 7 52 2017-10-24 00:00
34 LfdV Les Fous du Volant WACKY RACER 449,261 4 40 2017-10-24 00:00
35 BLVD69 Blvd69 Crew 436,203 15 15 2017-10-24 00:00
36 ESRT Empire Street Race Team 432,716 4 5 2017-10-24 00:00
37 TMDDK Team Mad Dogs Danmark 421,663 4 10 2017-10-24 00:00
38 SJRC Zero Effort Gamers 386,174 6 10 2017-10-24 00:00
39 MWR MWR Legends 372,940 31 38 2017-10-24 00:00
40 WMNR Worlds Most Notorious Racers 367,615 16 17 2017-10-24 00:00
41 NFSWHU Need for Speed Hungary Team 346,836 10 28 2017-10-24 00:00
42 SRBTM SerbiaTM 334,537 58 58 2017-10-24 00:00
43 FPBr Grupo Fair Play Brasil 330,446 11 41 2017-10-24 00:00
44 CoXTD Crew of Xtrem Tuned Drivers 329,887 5 5 2017-10-24 00:00
45 BTR Born to Race 328,469 5 25 2017-10-24 00:00
46 BRAZIL BRAZIL - NFSW team 294,126 5 5 2017-10-24 00:00
47 FE Fuerzas Especiales HP RPM 280,958 6 7 2017-10-24 00:00
48 GT-RO GT ROMANIA CLUB 274,992 5 10 2017-10-24 00:00
49 USGS The G Crew 270,755 14 15 2017-10-24 00:00
50 NBrT NBrT Team Group 266,192 27 42 2017-10-24 00:00
P-STATS NETWORK FORUM LOGIN CREATE ACCOUNT